| time (UTC) | temp F | wind direction | speed knots | gust knots | rain 1hr in | rain 24hr in | rain mn in | humidity % | barometer mb |
| 20260901232046 | 65 | 161 | 0.0 | 1.7 | 0.00 | 0.00 | 0.00 | 78 | 1009.2 |
| 20260901231558 | 65 | 0 | 0.0 | 5.2 | 0.00 | 0.00 | 0.00 | 78 | 1009.2 |
| 20260901231046 | 66 | 0 | 0.0 | 7.0 | 0.00 | 0.00 | 0.00 | 76 | 1009.2 |
| 20260901230544 | 66 | 161 | 0.0 | 7.8 | 0.00 | 0.00 | 0.00 | 76 | 1009.1 |
| 20260901230137 | 66 | 161 | 1.7 | 7.8 | 0.00 | 0.00 | 0.00 | 75 | 1009.1 |
| 20260901225546 | 66 | 171 | 0.9 | 7.8 | 0.00 | 0.00 | 0.00 | 75 | 1009.1 |
| 20260901225046 | 66 | 171 | 0.9 | 7.8 | 0.00 | 0.00 | 0.00 | 75 | 1009.2 |
| 20260901224602 | 66 | 159 | 0.9 | 7.8 | 0.00 | 0.00 | 0.00 | 75 | 1009.1 |
| 20260901224045 | 67 | 0 | 0.0 | 3.5 | 0.00 | 0.00 | 0.00 | 74 | 1009.1 |
| 20260901223548 | 67 | 0 | 0.0 | 4.3 | 0.00 | 0.00 | 0.00 | 74 | 1009.1 |
| 20260901223112 | 67 | 173 | 0.9 | 7.0 | 0.00 | 0.00 | 0.00 | 73 | 1009.1 |
| 20260901222548 | 67 | 174 | 0.9 | 7.0 | 0.00 | 0.00 | 0.00 | 73 | 1009.1 |
| 20260901222044 | 67 | 0 | 0.9 | 8.7 | 0.00 | 0.00 | 0.00 | 73 | 1009.1 |
| 20260901221559 | 67 | 202 | 3.5 | 8.7 | 0.00 | 0.00 | 0.00 | 72 | 1009.1 |
| 20260901221046 | 68 | 129 | 3.5 | 8.7 | 0.00 | 0.00 | 0.00 | 71 | 1009.1 |
| 20260901220547 | 68 | 179 | 1.7 | 10.4 | 0.00 | 0.00 | 0.00 | 71 | 1009.1 |
| 20260901220104 | 69 | 145 | 5.2 | 10.4 | 0.00 | 0.00 | 0.00 | 70 | 1009.1 |
| 20260901215544 | 69 | 184 | 3.5 | 9.6 | 0.00 | 0.00 | 0.00 | 70 | 1009.1 |
| 20260901215047 | 69 | 126 | 4.3 | 11.3 | 0.00 | 0.00 | 0.00 | 70 | 1009.2 |
| 20260901214559 | 68 | 150 | 3.5 | 11.3 | 0.00 | 0.00 | 0.00 | 71 | 1009.2 |
| 20260901214046 | 69 | 163 | 2.6 | 9.6 | 0.00 | 0.00 | 0.00 | 70 | 1009.2 |
| 20260901213544 | 68 | 0 | 1.7 | 8.7 | 0.00 | 0.00 | 0.00 | 71 | 1009.2 |
| 20260901213100 | 68 | 203 | 2.6 | 9.6 | 0.00 | 0.00 | 0.00 | 71 | 1009.2 |
| 20260901212546 | 68 | 169 | 2.6 | 9.6 | 0.00 | 0.00 | 0.00 | 71 | 1009.2 |
| 20260901212046 | 68 | 158 | 3.5 | 9.6 | 0.00 | 0.00 | 0.00 | 71 | 1009.4 |
| 20260901211558 | 69 | 175 | 3.5 | 9.6 | 0.00 | 0.00 | 0.00 | 70 | 1009.5 |
| 20260901211045 | 69 | 171 | 2.6 | 8.7 | 0.00 | 0.00 | 0.00 | 71 | 1009.5 |
| 20260901210543 | 69 | 184 | 0.0 | 7.8 | 0.00 | 0.00 | 0.00 | 72 | 1009.6 |
| 20260901210105 | 68 | 144 | 3.5 | 7.8 | 0.00 | 0.00 | 0.00 | 71 | 1009.6 |
| 20260901205550 | 67 | 161 | 3.5 | 7.0 | 0.00 | 0.00 | 0.00 | 72 | 1009.9 |
| 20260901205046 | 68 | 157 | 2.6 | 7.8 | 0.00 | 0.00 | 0.00 | 71 | 1009.9 |
| 20260901204601 | 68 | 211 | 3.5 | 8.7 | 0.00 | 0.00 | 0.00 | 73 | 1009.8 |
| 20260901204046 | 67 | 128 | 1.7 | 9.6 | 0.00 | 0.00 | 0.00 | 73 | 1009.9 |
| 20260901203546 | 66 | 0 | 3.5 | 9.6 | 0.00 | 0.00 | 0.00 | 74 | 1009.9 |
| 20260901203120 | 66 | 172 | 2.6 | 9.6 | 0.00 | 0.00 | 0.00 | 73 | 1009.9 |
| 20260901202547 | 66 | 153 | 2.6 | 12.2 | 0.00 | 0.00 | 0.00 | 74 | 1009.9 |
| 20260901202047 | 66 | 155 | 4.3 | 12.2 | 0.00 | 0.00 | 0.00 | 74 | 1010.0 |
| 20260901201602 | 66 | 188 | 5.2 | 12.2 | 0.00 | 0.00 | 0.00 | 74 | 1010.1 |
| 20260901201046 | 66 | 157 | 4.3 | 12.2 | 0.00 | 0.00 | 0.00 | 75 | 1010.1 |
| 20260901200545 | 66 | 153 | 4.3 | 12.2 | 0.00 | 0.00 | 0.00 | 74 | 1010.1 |
| 20260901200105 | 65 | 167 | 4.3 | 9.6 | 0.00 | 0.00 | 0.00 | 75 | 1010.0 |
| 20260901195547 | 65 | 156 | 1.7 | 7.8 | 0.00 | 0.00 | 0.00 | 77 | 1010.1 |
| 20260901195047 | 64 | 176 | 2.6 | 7.8 | 0.00 | 0.00 | 0.00 | 77 | 1010.0 |
| 20260901194605 | 64 | 269 | 3.5 | 8.7 | 0.00 | 0.00 | 0.00 | 76 | 1010.1 |
| 20260901194046 | 65 | 178 | 4.3 | 8.7 | 0.00 | 0.00 | 0.00 | 77 | 1010.0 |
| 20260901193547 | 65 | 165 | 2.6 | 7.8 | 0.00 | 0.00 | 0.00 | 77 | 1010.0 |
| 20260901193059 | 64 | 209 | 2.6 | 11.3 | 0.00 | 0.00 | 0.00 | 78 | 1010.0 |
| 20260901192546 | 64 | 183 | 2.6 | 11.3 | 0.00 | 0.00 | 0.00 | 79 | 1010.0 |
| 20260901192051 | 64 | 153 | 5.2 | 9.6 | 0.00 | 0.00 | 0.00 | 79 | 1010.1 |
| 20260901191603 | 65 | 175 | 2.6 | 8.7 | 0.00 | 0.00 | 0.00 | 79 | 1010.0 |
| 20260901191046 | 64 | 236 | 2.6 | 10.4 | 0.00 | 0.00 | 0.00 | 79 | 1010.1 |
| 20260901190546 | 65 | 203 | 3.5 | 11.3 | 0.00 | 0.00 | 0.00 | 78 | 1010.0 |
| 20260901190110 | 65 | 178 | 2.6 | 11.3 | 0.00 | 0.00 | 0.00 | 78 | 1010.0 |
| 20260901185546 | 65 | 198 | 4.3 | 9.6 | 0.00 | 0.00 | 0.00 | 77 | 1009.9 |
| 20260901185050 | 65 | 220 | 0.9 | 7.8 | 0.00 | 0.00 | 0.00 | 77 | 1009.8 |
| 20260901184558 | 64 | 192 | 3.5 | 8.7 | 0.00 | 0.00 | 0.00 | 77 | 1009.8 |
| 20260901184046 | 65 | 163 | 3.5 | 8.7 | 0.00 | 0.00 | 0.00 | 76 | 1009.8 |
| 20260901183550 | 64 | 168 | 2.6 | 7.8 | 0.00 | 0.00 | 0.00 | 80 | 1009.9 |
| 20260901183110 | 64 | 199 | 2.6 | 6.1 | 0.00 | 0.00 | 0.00 | 79 | 1009.9 |
| 20260901182546 | 64 | 190 | 2.6 | 7.0 | 0.00 | 0.00 | 0.00 | 79 | 1009.8 |
| 20260901182046 | 63 | 205 | 2.6 | 7.0 | 0.00 | 0.00 | 0.00 | 81 | 1009.9 |
| 20260901181604 | 64 | 192 | 2.6 | 7.8 | 0.00 | 0.00 | 0.00 | 79 | 1009.8 |
| 20260901181046 | 64 | 180 | 0.9 | 7.8 | 0.00 | 0.00 | 0.00 | 79 | 1009.8 |
| 20260901180546 | 64 | 183 | 1.7 | 7.8 | 0.00 | 0.00 | 0.00 | 79 | 1009.8 |
| 20260901180104 | 65 | 141 | 1.7 | 9.6 | 0.00 | 0.00 | 0.00 | 78 | 1009.8 |
| 20260901175546 | 64 | 167 | 3.5 | 9.6 | 0.00 | 0.00 | 0.00 | 78 | 1009.7 |
| 20260901175046 | 64 | 167 | 3.5 | 7.8 | 0.00 | 0.00 | 0.00 | 78 | 1009.8 |
| 20260901174600 | 63 | 186 | 2.6 | 10.4 | 0.00 | 0.00 | 0.00 | 80 | 1009.8 |
| 20260901174045 | 63 | 0 | 1.7 | 10.4 | 0.00 | 0.00 | 0.00 | 81 | 1009.8 |
| 20260901173547 | 63 | 154 | 4.3 | 8.7 | 0.00 | 0.00 | 0.00 | 81 | 1009.7 |
| 20260901173112 | 62 | 133 | 2.6 | 7.8 | 0.00 | 0.00 | 0.00 | 81 | 1009.8 |
| 20260901172547 | 63 | 168 | 2.6 | 8.7 | 0.00 | 0.00 | 0.00 | 82 | 1009.7 |
| 20260901172046 | 62 | 142 | 1.7 | 8.7 | 0.00 | 0.00 | 0.00 | 83 | 1009.7 |
| 20260901171601 | 62 | 165 | 1.7 | 7.8 | 0.00 | 0.00 | 0.00 | 83 | 1009.8 |
| 20260901171050 | 61 | 169 | 2.6 | 6.1 | 0.00 | 0.00 | 0.00 | 84 | 1009.8 |
| 20260901170547 | 61 | 155 | 2.6 | 7.0 | 0.00 | 0.00 | 0.00 | 84 | 1009.7 |
| 20260901170104 | 61 | 153 | 2.6 | 7.0 | 0.00 | 0.00 | 0.00 | 85 | 1009.7 |
| 20260901165546 | 61 | 174 | 2.6 | 7.8 | 0.00 | 0.00 | 0.00 | 85 | 1009.7 |
| 20260901165046 | 61 | 202 | 4.3 | 7.8 | 0.00 | 0.00 | 0.00 | 85 | 1009.7 |
| 20260901164635 | 60 | 169 | 3.5 | 6.1 | 0.00 | 0.00 | 0.00 | 85 | 1009.8 |
| 20260901164046 | 60 | 213 | 2.6 | 10.4 | 0.00 | 0.00 | 0.00 | 85 | 1009.8 |
| 20260901163546 | 60 | 163 | 5.2 | 10.4 | 0.00 | 0.00 | 0.00 | 85 | 1009.7 |
| 20260901163059 | 61 | 164 | 1.7 | 8.7 | 0.00 | 0.00 | 0.00 | 86 | 1009.8 |
| 20260901162546 | 60 | 134 | 1.7 | 8.7 | 0.00 | 0.00 | 0.00 | 87 | 1009.8 |
| 20260901162044 | 60 | 157 | 3.5 | 8.7 | 0.00 | 0.00 | 0.00 | 87 | 1009.8 |
| 20260901161606 | 60 | 155 | 2.6 | 8.7 | 0.00 | 0.00 | 0.00 | 87 | 1009.8 |
| 20260901161046 | 59 | 167 | 3.5 | 8.7 | 0.00 | 0.00 | 0.00 | 88 | 1009.8 |
| 20260901160546 | 59 | 169 | 2.6 | 8.7 | 0.00 | 0.00 | 0.00 | 90 | 1009.8 |
| 20260901155546 | 58 | 156 | 3.5 | 8.7 | 0.00 | 0.00 | 0.00 | 92 | 1009.9 |
| 20260901155044 | 58 | 213 | 1.7 | 9.6 | 0.00 | 0.00 | 0.00 | 92 | 1010.0 |
| 20260901154559 | 58 | 160 | 4.3 | 9.6 | 0.00 | 0.00 | 0.00 | 93 | 1010.0 |
| 20260901154048 | 57 | 164 | 3.5 | 7.8 | 0.00 | 0.00 | 0.00 | 94 | 1010.1 |
| 20260901153547 | 57 | 159 | 3.5 | 7.8 | 0.00 | 0.00 | 0.00 | 95 | 1010.0 |
| 20260901153102 | 56 | 148 | 2.6 | 7.0 | 0.00 | 0.00 | 0.00 | 95 | 1010.0 |
| 20260901152546 | 56 | 150 | 1.7 | 5.2 | 0.00 | 0.00 | 0.00 | 96 | 1010.0 |
| 20260901152046 | 56 | 0 | 1.7 | 5.2 | 0.00 | 0.00 | 0.00 | 96 | 1010.0 |
| 20260901151600 | 56 | 169 | 0.0 | 5.2 | 0.00 | 0.00 | 0.00 | 96 | 1010.0 |
| 20260901151047 | 56 | 169 | 0.9 | 5.2 | 0.00 | 0.00 | 0.00 | 96 | 1010.0 |
| 20260901150546 | 55 | 181 | 0.9 | 4.3 | 0.00 | 0.00 | 0.00 | 97 | 1010.0 |
| 20260901150103 | 55 | 0 | 1.7 | 4.3 | 0.00 | 0.00 | 0.00 | 97 | 1009.9 |
| 20260901145548 | 55 | 248 | 0.0 | 1.7 | 0.00 | 0.00 | 0.00 | 97 | 1009.9 |
| 20260901145046 | 54 | 0 | 0.0 | 2.6 | 0.00 | 0.00 | 0.00 | 97 | 1009.8 |
| 20260901144603 | 54 | 0 | 0.0 | 2.6 | 0.00 | 0.00 | 0.00 | 97 | 1009.9 |
| 20260901144045 | 53 | 0 | 0.0 | 0.9 | 0.00 | 0.00 | 0.00 | 96 | 1009.7 |
| 20260901143547 | 53 | 0 | 0.0 | 0.9 | 0.00 | 0.00 | 0.00 | 96 | 1009.7 |
| 20260901143102 | 53 | 0 | 0.0 | 0.9 | 0.00 | 0.00 | 0.00 | 96 | 1009.7 |
| 20260901142549 | 53 | 0 | 0.0 | 0.9 | 0.00 | 0.00 | 0.00 | 96 | 1009.8 |
| 20260901142050 | 53 | 307 | 0.0 | 0.9 | 0.00 | 0.00 | 0.00 | 96 | 1009.6 |
| 20260901141610 | 53 | 0 | 0.0 | 0.0 | 0.00 | 0.00 | 0.00 | 96 | 1009.6 |
| 20260901141046 | 53 | 0 | 0.0 | 0.0 | 0.00 | 0.00 | 0.00 | 96 | 1009.6 |
| 20260901140543 | 53 | 0 | 0.0 | 0.0 | 0.00 | 0.00 | 0.00 | 96 | 1009.6 |
| 20260901140103 | 53 | 0 | 0.0 | 0.0 | 0.00 | 0.00 | 0.00 | 96 | 1009.6 |
| 20260901135549 | 53 | 0 | 0.0 | 0.9 | 0.00 | 0.00 | 0.00 | 96 | 1009.5 |
| 20260901135047 | 53 | 0 | 0.0 | 0.9 | 0.00 | 0.00 | 0.00 | 96 | 1009.4 |
| 20260901134603 | 53 | 0 | 0.0 | 0.9 | 0.00 | 0.00 | 0.00 | 96 | 1009.4 |
| 20260901134046 | 53 | 0 | 0.0 | 0.9 | 0.00 | 0.00 | 0.00 | 96 | 1009.4 |
| 20260901133546 | 53 | 0 | 0.0 | 0.9 | 0.00 | 0.00 | 0.00 | 97 | 1009.3 |
| 20260901133104 | 53 | 0 | 0.0 | 2.6 | 0.00 | 0.00 | 0.00 | 97 | 1009.3 |
| 20260901132549 | 53 | 0 | 0.0 | 2.6 | 0.00 | 0.00 | 0.00 | 96 | 1009.2 |
| 20260901132046 | 53 | 307 | 0.9 | 2.6 | 0.00 | 0.00 | 0.00 | 96 | 1009.2 |
| 20260901131611 | 52 | 308 | 0.0 | 2.6 | 0.00 | 0.00 | 0.00 | 96 | 1009.1 |
| 20260901131045 | 52 | 0 | 0.0 | 1.7 | 0.00 | 0.00 | 0.00 | 96 | 1009.1 |
| 20260901130547 | 52 | 0 | 0.0 | 0.0 | 0.00 | 0.00 | 0.00 | 96 | 1009.0 |
| 20260901125546 | 52 | 0 | 0.0 | 0.0 | 0.00 | 0.00 | 0.00 | 96 | 1008.9 |
| 20260901125047 | 51 | 0 | 0.0 | 0.0 | 0.00 | 0.00 | 0.00 | 96 | 1008.8 |
| 20260901124559 | 51 | 0 | 0.0 | 0.0 | 0.00 | 0.00 | 0.00 | 96 | 1008.7 |
| 20260901124044 | 51 | 0 | 0.0 | 0.0 | 0.00 | 0.00 | 0.00 | 96 | 1008.7 |
| 20260901123550 | 51 | 0 | 0.0 | 0.0 | 0.00 | 0.00 | 0.00 | 96 | 1008.6 |
| 20260901123106 | 51 | 0 | 0.0 | 0.0 | 0.00 | 0.00 | 0.00 | 96 | 1008.6 |
| 20260901122546 | 51 | 0 | 0.0 | 0.0 | 0.00 | 0.00 | 0.00 | 96 | 1008.5 |
| 20260901122047 | 51 | 0 | 0.0 | 0.0 | 0.00 | 0.00 | 0.00 | 96 | 1008.6 |
| 20260901121613 | 51 | 0 | 0.0 | 0.0 | 0.00 | 0.00 | 0.00 | 96 | 1008.6 |
| 20260901121044 | 51 | 0 | 0.0 | 0.0 | 0.00 | 0.00 | 0.00 | 95 | 1008.6 |
| 20260901120547 | 51 | 0 | 0.0 | 0.0 | 0.00 | 0.00 | 0.00 | 95 | 1008.6 |
| 20260901120124 | 51 | 0 | 0.0 | 0.0 | 0.00 | 0.00 | 0.00 | 95 | 1008.6 |
| 20260901115546 | 51 | 0 | 0.0 | 0.0 | 0.00 | 0.00 | 0.00 | 95 | 1008.6 |
| 20260901115046 | 51 | 0 | 0.0 | 0.0 | 0.00 | 0.00 | 0.00 | 95 | 1008.6 |
| 20260901114601 | 51 | 0 | 0.0 | 0.0 | 0.00 | 0.00 | 0.00 | 95 | 1008.6 |
| 20260901114046 | 51 | 0 | 0.0 | 0.0 | 0.00 | 0.00 | 0.00 | 95 | 1008.7 |
| 20260901113547 | 51 | 0 | 0.0 | 0.0 | 0.00 | 0.00 | 0.00 | 95 | 1008.8 |
| 20260901113104 | 51 | 0 | 0.0 | 0.0 | 0.00 | 0.00 | 0.00 | 95 | 1008.8 |
| 20260901112545 | 51 | 0 | 0.0 | 0.0 | 0.00 | 0.00 | 0.00 | 95 | 1008.9 |
| 20260901112047 | 51 | 0 | 0.0 | 0.0 | 0.00 | 0.00 | 0.00 | 95 | 1008.9 |
| 20260901111610 | 51 | 0 | 0.0 | 0.0 | 0.00 | 0.00 | 0.00 | 95 | 1009.0 |
| 20260901111048 | 51 | 0 | 0.0 | 0.0 | 0.00 | 0.00 | 0.00 | 95 | 1009.0 |
| 20260901110546 | 51 | 0 | 0.0 | 0.0 | 0.00 | 0.00 | 0.00 | 95 | 1008.9 |
| 20260901110100 | 51 | 0 | 0.0 | 0.0 | 0.00 | 0.00 | 0.00 | 95 | 1009.0 |
| 20260901105548 | 51 | 0 | 0.0 | 0.0 | 0.00 | 0.00 | 0.00 | 95 | 1008.8 |
| 20260901105047 | 51 | 0 | 0.0 | 0.0 | 0.00 | 0.00 | 0.00 | 95 | 1008.9 |
| 20260901104606 | 52 | 0 | 0.0 | 0.0 | 0.00 | 0.00 | 0.00 | 95 | 1008.8 |
| 20260901104046 | 52 | 0 | 0.0 | 0.0 | 0.00 | 0.00 | 0.00 | 95 | 1008.8 |
| 20260901103545 | 52 | 0 | 0.0 | 0.0 | 0.00 | 0.00 | 0.00 | 94 | 1008.8 |
| 20260901103124 | 52 | 0 | 0.0 | 0.0 | 0.00 | 0.00 | 0.00 | 94 | 1008.8 |
| 20260901102547 | 52 | 0 | 0.0 | 0.0 | 0.00 | 0.00 | 0.00 | 95 | 1008.8 |
| 20260901102047 | 52 | 0 | 0.0 | 0.0 | 0.00 | 0.00 | 0.00 | 95 | 1008.8 |
| 20260901101604 | 52 | 0 | 0.0 | 0.0 | 0.00 | 0.00 | 0.00 | 94 | 1008.9 |
| 20260901101045 | 52 | 0 | 0.0 | 0.0 | 0.00 | 0.00 | 0.00 | 94 | 1008.8 |
| 20260901100546 | 52 | 0 | 0.0 | 0.0 | 0.00 | 0.00 | 0.00 | 94 | 1008.8 |
| 20260901100106 | 52 | 0 | 0.0 | 0.0 | 0.00 | 0.00 | 0.00 | 94 | 1008.9 |
| 20260901095547 | 52 | 0 | 0.0 | 0.0 | 0.00 | 0.00 | 0.00 | 94 | 1008.8 |
| 20260901095046 | 52 | 0 | 0.0 | 0.0 | 0.00 | 0.00 | 0.00 | 94 | 1008.8 |
| 20260901094602 | 52 | 0 | 0.0 | 0.0 | 0.00 | 0.00 | 0.00 | 94 | 1008.8 |
| 20260901094043 | 52 | 0 | 0.0 | 0.0 | 0.00 | 0.00 | 0.00 | 94 | 1008.8 |
| 20260901093549 | 52 | 0 | 0.0 | 0.0 | 0.00 | 0.00 | 0.00 | 94 | 1008.7 |
| 20260901093128 | 52 | 0 | 0.0 | 0.0 | 0.00 | 0.00 | 0.00 | 94 | 1008.7 |
| 20260901092547 | 52 | 0 | 0.0 | 1.7 | 0.00 | 0.00 | 0.00 | 94 | 1008.7 |
| 20260901092047 | 52 | 0 | 0.0 | 1.7 | 0.00 | 0.00 | 0.00 | 94 | 1008.7 |
| 20260901091615 | 53 | 0 | 0.0 | 1.7 | 0.00 | 0.00 | 0.00 | 94 | 1008.7 |
| 20260901091049 | 52 | 0 | 0.0 | 0.0 | 0.00 | 0.00 | 0.00 | 93 | 1008.7 |
| 20260901090550 | 53 | 0 | 0.0 | 0.0 | 0.00 | 0.00 | 0.00 | 93 | 1008.6 |
| 20260901090108 | 53 | 0 | 0.0 | 0.0 | 0.00 | 0.00 | 0.00 | 93 | 1008.6 |
| 20260901085546 | 53 | 0 | 0.0 | 0.0 | 0.00 | 0.00 | 0.00 | 93 | 1008.7 |
| 20260901085046 | 53 | 0 | 0.0 | 0.0 | 0.00 | 0.00 | 0.00 | 93 | 1008.5 |
| 20260901084600 | 53 | 0 | 0.0 | 0.0 | 0.00 | 0.00 | 0.00 | 93 | 1008.6 |
| 20260901084047 | 53 | 0 | 0.0 | 0.0 | 0.00 | 0.00 | 0.00 | 93 | 1008.6 |
| 20260901083546 | 53 | 0 | 0.0 | 0.0 | 0.00 | 0.00 | 0.00 | 93 | 1008.7 |
| 20260901083101 | 53 | 0 | 0.0 | 0.0 | 0.00 | 0.00 | 0.00 | 92 | 1008.7 |
| 20260901082551 | 53 | 0 | 0.0 | 0.0 | 0.00 | 0.00 | 0.00 | 92 | 1008.6 |
| 20260901082047 | 53 | 0 | 0.0 | 0.0 | 0.00 | 0.00 | 0.00 | 92 | 1008.6 |
| 20260901081615 | 53 | 0 | 0.0 | 0.0 | 0.00 | 0.00 | 0.00 | 92 | 1008.7 |
| 20260901081049 | 53 | 0 | 0.0 | 0.0 | 0.00 | 0.00 | 0.00 | 92 | 1008.7 |
| 20260901080550 | 53 | 0 | 0.0 | 0.0 | 0.00 | 0.00 | 0.00 | 92 | 1008.7 |
| 20260901080107 | 53 | 0 | 0.0 | 0.0 | 0.00 | 0.00 | 0.00 | 92 | 1008.6 |
| 20260901075545 | 54 | 0 | 0.0 | 0.0 | 0.00 | 0.00 | 0.00 | 91 | 1008.6 |
| 20260901075049 | 54 | 0 | 0.0 | 0.0 | 0.00 | 0.00 | 0.00 | 91 | 1008.7 |
| 20260901074601 | 54 | 0 | 0.0 | 0.0 | 0.00 | 0.00 | 0.00 | 91 | 1008.7 |
| 20260901074046 | 54 | 0 | 0.0 | 0.0 | 0.00 | 0.00 | 0.00 | 91 | 1008.6 |
| 20260901073546 | 54 | 0 | 0.0 | 0.0 | 0.00 | 0.00 | 0.00 | 91 | 1008.5 |
| 20260901073114 | 54 | 0 | 0.0 | 0.0 | 0.00 | 0.00 | 0.00 | 91 | 1008.6 |
| 20260901072547 | 54 | 0 | 0.0 | 0.0 | 0.00 | 0.00 | 0.00 | 90 | 1008.6 |
| 20260901072047 | 55 | 0 | 0.0 | 0.0 | 0.00 | 0.00 | 0.00 | 90 | 1008.6 |
| 20260901071604 | 55 | 0 | 0.0 | 0.0 | 0.00 | 0.00 | 0.00 | 90 | 1008.7 |
| 20260901071047 | 55 | 0 | 0.0 | 0.0 | 0.00 | 0.00 | 0.00 | 90 | 1008.7 |
| 20260901070546 | 55 | 0 | 0.0 | 0.0 | 0.00 | 0.00 | 0.00 | 90 | 1008.6 |
| 20260901070103 | 55 | 0 | 0.0 | 0.0 | 0.00 | 0.00 | 0.00 | 89 | 1008.7 |
| 20260901065546 | 55 | 0 | 0.0 | 0.0 | 0.00 | 0.00 | 0.00 | 89 | 1008.6 |
| 20260901065048 | 55 | 0 | 0.0 | 0.0 | 0.00 | 0.00 | 0.00 | 89 | 1008.6 |
| 20260901064602 | 56 | 0 | 0.0 | 0.0 | 0.00 | 0.00 | 0.00 | 89 | 1008.6 |
| 20260901064047 | 56 | 0 | 0.0 | 0.0 | 0.00 | 0.00 | 0.00 | 88 | 1008.5 |
| 20260901063546 | 56 | 0 | 0.0 | 0.0 | 0.00 | 0.00 | 0.00 | 88 | 1008.5 |
| 20260901063102 | 56 | 0 | 0.0 | 0.0 | 0.00 | 0.00 | 0.00 | 88 | 1008.5 |
| 20260901062546 | 56 | 0 | 0.0 | 0.0 | 0.00 | 0.00 | 0.00 | 88 | 1008.7 |
| 20260901062046 | 56 | 0 | 0.0 | 0.0 | 0.00 | 0.00 | 0.00 | 87 | 1008.8 |
| 20260901061604 | 56 | 0 | 0.0 | 0.0 | 0.00 | 0.00 | 0.00 | 87 | 1008.8 |
| 20260901061046 | 57 | 0 | 0.0 | 0.0 | 0.00 | 0.00 | 0.00 | 87 | 1008.7 |
| 20260901060546 | 57 | 0 | 0.0 | 0.0 | 0.00 | 0.00 | 0.00 | 86 | 1008.8 |
| 20260901060104 | 57 | 0 | 0.0 | 0.0 | 0.00 | 0.00 | 0.00 | 86 | 1008.8 |
| 20260901055545 | 57 | 0 | 0.0 | 0.9 | 0.00 | 0.00 | 0.00 | 86 | 1008.9 |
| 20260901055044 | 57 | 0 | 0.0 | 1.7 | 0.00 | 0.00 | 0.00 | 85 | 1008.9 |
| 20260901054602 | 58 | 0 | 0.0 | 1.7 | 0.00 | 0.00 | 0.00 | 85 | 1009.0 |
| 20260901054047 | 58 | 0 | 0.0 | 1.7 | 0.00 | 0.00 | 0.00 | 85 | 1008.9 |
| 20260901053544 | 58 | 307 | 0.0 | 1.7 | 0.00 | 0.00 | 0.00 | 85 | 1008.9 |
| 20260901053123 | 58 | 0 | 0.0 | 0.0 | 0.00 | 0.00 | 0.00 | 85 | 1008.8 |
| 20260901052546 | 58 | 0 | 0.0 | 0.0 | 0.00 | 0.00 | 0.00 | 85 | 1008.8 |
| 20260901052046 | 58 | 0 | 0.0 | 0.0 | 0.00 | 0.00 | 0.00 | 84 | 1008.8 |
| 20260901051604 | 58 | 0 | 0.0 | 0.0 | 0.00 | 0.00 | 0.00 | 84 | 1008.8 |
| 20260901051047 | 59 | 0 | 0.0 | 0.0 | 0.00 | 0.00 | 0.00 | 83 | 1008.8 |
| 20260901050550 | 59 | 0 | 0.0 | 0.0 | 0.00 | 0.00 | 0.00 | 82 | 1008.9 |
| 20260901045547 | 60 | 0 | 0.0 | 0.0 | 0.00 | 0.00 | 0.00 | 81 | 1009.0 |
| 20260901045044 | 60 | 0 | 0.0 | 0.0 | 0.00 | 0.00 | 0.00 | 81 | 1008.9 |
| 20260901044602 | 60 | 0 | 0.0 | 0.0 | 0.00 | 0.00 | 0.00 | 80 | 1008.8 |
| 20260901044046 | 61 | 0 | 0.0 | 0.0 | 0.00 | 0.00 | 0.00 | 82 | 1008.8 |
| 20260901043546 | 61 | 0 | 0.0 | 0.0 | 0.00 | 0.00 | 0.00 | 81 | 1008.9 |
| 20260901043130 | 61 | 0 | 0.0 | 0.0 | 0.00 | 0.00 | 0.00 | 79 | 1008.9 |
| 20260901042546 | 61 | 0 | 0.0 | 0.0 | 0.00 | 0.00 | 0.00 | 77 | 1008.9 |
| 20260901042046 | 61 | 0 | 0.0 | 0.0 | 0.00 | 0.00 | 0.00 | 78 | 1008.8 |
| 20260901041610 | 62 | 0 | 0.0 | 0.9 | 0.00 | 0.00 | 0.00 | 76 | 1008.7 |
| 20260901041044 | 62 | 0 | 0.0 | 0.9 | 0.00 | 0.00 | 0.00 | 76 | 1008.7 |
| 20260901040547 | 62 | 0 | 0.0 | 0.9 | 0.00 | 0.00 | 0.00 | 75 | 1008.7 |
| 20260901040106 | 63 | 0 | 0.0 | 0.9 | 0.00 | 0.00 | 0.00 | 74 | 1008.7 |
| 20260901035545 | 63 | 0 | 0.0 | 0.9 | 0.00 | 0.00 | 0.00 | 74 | 1008.6 |
| 20260901035048 | 63 | 0 | 0.0 | 2.6 | 0.00 | 0.00 | 0.00 | 73 | 1008.7 |
| 20260901034607 | 64 | 0 | 0.0 | 2.6 | 0.00 | 0.00 | 0.00 | 75 | 1008.7 |
| 20260901034046 | 64 | 0 | 0.0 | 3.5 | 0.00 | 0.00 | 0.00 | 72 | 1008.7 |
| 20260901033544 | 64 | 0 | 0.0 | 3.5 | 0.00 | 0.00 | 0.00 | 71 | 1008.5 |
| 20260901033110 | 64 | 308 | 0.9 | 3.5 | 0.00 | 0.00 | 0.00 | 70 | 1008.5 |
| 20260901032545 | 65 | 307 | 0.9 | 3.5 | 0.00 | 0.00 | 0.00 | 70 | 1008.4 |
| 20260901032045 | 65 | 307 | 0.0 | 2.6 | 0.00 | 0.00 | 0.00 | 71 | 1008.3 |
| 20260901031604 | 65 | 308 | 0.0 | 7.0 | 0.00 | 0.00 | 0.00 | 70 | 1008.3 |
| 20260901031045 | 65 | 0 | 1.7 | 7.0 | 0.00 | 0.00 | 0.00 | 70 | 1008.2 |
| 20260901030548 | 65 | 299 | 0.9 | 6.1 | 0.00 | 0.00 | 0.00 | 70 | 1008.2 |
| 20260901030104 | 65 | 0 | 0.9 | 2.6 | 0.00 | 0.00 | 0.00 | 70 | 1008.2 |
| 20260901025544 | 66 | 309 | 0.0 | 3.5 | 0.00 | 0.00 | 0.00 | 69 | 1008.3 |
| 20260901025046 | 66 | 309 | 0.0 | 4.3 | 0.00 | 0.00 | 0.00 | 69 | 1008.2 |
| 20260901024608 | 66 | 310 | 0.9 | 4.3 | 0.00 | 0.00 | 0.00 | 68 | 1008.2 |
| 20260901024048 | 66 | 306 | 1.7 | 4.3 | 0.00 | 0.00 | 0.00 | 68 | 1008.2 |
| 20260901023546 | 67 | 307 | 1.7 | 6.1 | 0.00 | 0.00 | 0.00 | 68 | 1008.2 |
| 20260901023105 | 67 | 342 | 1.7 | 6.1 | 0.00 | 0.00 | 0.00 | 68 | 1008.2 |
| 20260901022546 | 67 | 318 | 0.9 | 4.3 | 0.00 | 0.00 | 0.00 | 68 | 1008.3 |
| 20260901022046 | 67 | 298 | 0.9 | 4.3 | 0.00 | 0.00 | 0.00 | 68 | 1008.3 |
| 20260901021610 | 68 | 315 | 0.9 | 4.3 | 0.00 | 0.00 | 0.00 | 67 | 1008.2 |
| 20260901021045 | 68 | 314 | 0.0 | 3.5 | 0.00 | 0.00 | 0.00 | 67 | 1008.2 |
| 20260901020547 | 69 | 0 | 0.0 | 3.5 | 0.00 | 0.00 | 0.00 | 67 | 1008.2 |
| 20260901020114 | 69 | 300 | 0.0 | 4.3 | 0.00 | 0.00 | 0.00 | 67 | 1008.3 |
| 20260901015546 | 70 | 309 | 0.9 | 4.3 | 0.00 | 0.00 | 0.00 | 66 | 1008.4 |
| 20260901015046 | 70 | 352 | 0.9 | 4.3 | 0.00 | 0.00 | 0.00 | 65 | 1008.3 |
| 20260901014605 | 70 | 0 | 0.9 | 6.1 | 0.00 | 0.00 | 0.00 | 65 | 1008.3 |
| 20260901014044 | 70 | 0 | 0.9 | 6.1 | 0.00 | 0.00 | 0.00 | 65 | 1008.3 |
| 20260901013547 | 71 | 295 | 1.7 | 6.1 | 0.00 | 0.00 | 0.00 | 63 | 1008.3 |
| 20260901013108 | 71 | 311 | 0.9 | 7.0 | 0.00 | 0.00 | 0.00 | 63 | 1008.3 |
| 20260901012546 | 72 | 318 | 1.7 | 7.0 | 0.00 | 0.00 | 0.00 | 63 | 1008.3 |
| 20260901012049 | 72 | 313 | 1.7 | 7.0 | 0.00 | 0.00 | 0.00 | 62 | 1008.3 |
| 20260901011604 | 72 | 294 | 0.9 | 7.8 | 0.00 | 0.00 | 0.00 | 62 | 1008.3 |
| 20260901011051 | 72 | 297 | 2.6 | 7.8 | 0.00 | 0.00 | 0.00 | 60 | 1008.3 |
| 20260901010550 | 73 | 322 | 1.7 | 7.8 | 0.00 | 0.00 | 0.00 | 59 | 1008.4 |
| 20260901005543 | 73 | 326 | 2.6 | 7.8 | 0.00 | 0.00 | 0.00 | 59 | 1008.3 |
| 20260901005047 | 73 | 293 | 1.7 | 7.8 | 0.00 | 0.00 | 0.00 | 59 | 1008.3 |
| 20260901004607 | 73 | 311 | 2.6 | 7.8 | 0.00 | 0.00 | 0.00 | 59 | 1008.3 |
| 20260901004047 | 74 | 329 | 0.9 | 5.2 | 0.00 | 0.00 | 0.00 | 59 | 1008.3 |
| 20260901003546 | 73 | 283 | 0.9 | 7.0 | 0.00 | 0.00 | 0.00 | 59 | 1008.3 |
| 20260901003104 | 73 | 327 | 2.6 | 7.8 | 0.00 | 0.00 | 0.00 | 59 | 1008.4 |
| 20260901002546 | 73 | 298 | 2.6 | 7.8 | 0.00 | 0.00 | 0.00 | 59 | 1008.4 |
| 20260901002046 | 73 | 314 | 2.6 | 7.8 | 0.00 | 0.00 | 0.00 | 59 | 1008.5 |
| 20260901001605 | 74 | 19 | 2.6 | 7.0 | 0.00 | 0.00 | 0.00 | 59 | 1008.6 |
| 20260901001045 | 74 | 342 | 1.7 | 7.0 | 0.00 | 0.00 | 0.00 | 59 | 1008.7 |
| 20260901000550 | 74 | 35 | 0.9 | 7.0 | 0.00 | 0.00 | 0.00 | 61 | 1008.7 |
| 20260901000104 | 73 | 321 | 2.6 | 7.0 | 0.00 | 0.00 | 0.00 | 61 | 1008.8 |
| 20260831235546 | 73 | 292 | 1.7 | 7.0 | 0.00 | 0.00 | 0.00 | 61 | 1008.8 |
| 20260831235046 | 73 | 317 | 1.7 | 7.0 | 0.00 | 0.00 | 0.00 | 60 | 1008.8 |
| 20260831234606 | 73 | 238 | 1.7 | 7.0 | 0.00 | 0.00 | 0.00 | 62 | 1008.9 |
| 20260831234046 | 73 | 296 | 1.7 | 7.0 | 0.00 | 0.00 | 0.00 | 62 | 1009.0 |
| 20260831233548 | 73 | 0 | 2.6 | 7.0 | 0.00 | 0.00 | 0.00 | 63 | 1009.0 |
| 20260831233103 | 72 | 323 | 1.7 | 7.0 | 0.00 | 0.00 | 0.00 | 64 | 1009.1 |
| 20260831232546 | 73 | 313 | 1.7 | 7.8 | 0.00 | 0.00 | 0.00 | 63 | 1009.2 |